| time (UTC) | temp C | wind direction | speed KPH | gust KPH | rain 1hr cm | rain 24hr cm | rain mn cm | humidity % | barometer mb |
| 20260508164002 | 6 | 351 | 4.8 | 6.4 | 0.00 | 0.00 | 0.00 | 80 | 1012.7 |
| 20260508163459 | 6 | 350 | 4.8 | 4.8 | 0.00 | 0.00 | 0.00 | 80 | 1012.7 |
| 20260508162955 | 6 | 226 | 11.3 | 11.3 | 0.00 | 0.00 | 0.00 | 80 | 1012.7 |
| 20260508162453 | 5 | 357 | 6.4 | 9.7 | 0.00 | 0.00 | 0.00 | 82 | 1012.6 |
| 20260508161950 | 5 | 288 | 3.2 | 14.5 | 0.00 | 0.00 | 0.00 | 82 | 1012.7 |
| 20260508161447 | 5 | 353 | 3.2 | 11.3 | 0.00 | 0.00 | 0.00 | 84 | 1012.7 |
| 20260508160944 | 5 | 20 | 8.0 | 14.5 | 0.00 | 0.00 | 0.00 | 85 | 1012.8 |
| 20260508160443 | 4 | 12 | 4.8 | 9.7 | 0.00 | 0.00 | 0.00 | 87 | 1012.8 |
| 20260508155938 | 4 | 355 | 3.2 | 8.0 | 0.00 | 0.00 | 0.00 | 87 | 1013.0 |
| 20260508155436 | 4 | 346 | 1.6 | 6.4 | 0.00 | 0.00 | 0.00 | 88 | 1013.0 |
| 20260508154932 | 4 | 337 | 4.8 | 9.7 | 0.00 | 0.00 | 0.00 | 88 | 1012.9 |
| 20260508154430 | 4 | 317 | 3.2 | 4.8 | 0.00 | 0.00 | 0.00 | 86 | 1012.8 |
| 20260508153927 | 4 | 1 | 3.2 | 9.7 | 0.00 | 0.00 | 0.00 | 88 | 1012.6 |
| 20260508153424 | 4 | 25 | 6.4 | 9.7 | 0.00 | 0.00 | 0.00 | 88 | 1012.6 |
| 20260508152920 | 4 | 0 | 6.4 | 9.7 | 0.00 | 0.00 | 0.00 | 88 | 1012.6 |
| 20260508152416 | 5 | 359 | 3.2 | 8.0 | 0.00 | 0.00 | 0.00 | 87 | 1012.4 |
| 20260508151913 | 5 | 46 | 3.2 | 8.0 | 0.00 | 0.00 | 0.00 | 88 | 1012.3 |
| 20260508151410 | 5 | 12 | 4.8 | 9.7 | 0.00 | 0.00 | 0.00 | 86 | 1012.4 |
| 20260508150906 | 5 | 329 | 0.0 | 4.8 | 0.00 | 0.00 | 0.00 | 84 | 1012.4 |
| 20260508150403 | 5 | 63 | 1.6 | 4.8 | 0.00 | 0.00 | 0.00 | 85 | 1012.4 |
| 20260508145859 | 5 | 9 | 1.6 | 8.0 | 0.00 | 0.00 | 0.00 | 86 | 1012.1 |
| 20260508145355 | 5 | 95 | 4.8 | 6.4 | 0.00 | 0.00 | 0.00 | 86 | 1012.1 |
| 20260508144852 | 5 | 25 | 3.2 | 4.8 | 0.00 | 0.00 | 0.00 | 86 | 1012.3 |
| 20260508144350 | 5 | 224 | 0.0 | 4.8 | 0.00 | 0.00 | 0.00 | 85 | 1012.7 |
| 20260508143847 | 5 | 35 | 0.0 | 1.6 | 0.00 | 0.00 | 0.00 | 86 | 1012.6 |
| 20260508143344 | 5 | 102 | 0.0 | 1.6 | 0.00 | 0.00 | 0.00 | 86 | 1012.4 |
| 20260508142841 | 5 | 141 | 0.0 | 3.2 | 0.00 | 0.00 | 0.00 | 84 | 1012.4 |
| 20260508142338 | 4 | 32 | 0.0 | 1.6 | 0.00 | 0.00 | 0.00 | 85 | 1012.5 |
| 20260508141834 | 4 | 11 | 0.0 | 6.4 | 0.00 | 0.00 | 0.00 | 85 | 1012.3 |
| 20260508141331 | 4 | 251 | 1.6 | 12.9 | 0.00 | 0.00 | 0.00 | 85 | 1012.5 |
| 20260508140829 | 4 | 297 | 3.2 | 6.4 | 0.05 | 0.00 | 0.00 | 87 | 1012.7 |
| 20260508140326 | 4 | 298 | 1.6 | 11.3 | 0.05 | 0.00 | 0.00 | 87 | 1012.7 |
| 20260508135821 | 4 | 228 | 6.4 | 12.9 | 0.00 | 0.00 | 0.00 | 87 | 1012.6 |
| 20260508135318 | 4 | 76 | 0.0 | 3.2 | 0.00 | 0.00 | 0.00 | 88 | 1012.4 |
| 20260508134814 | 4 | 205 | 0.0 | 4.8 | 0.00 | 0.00 | 0.00 | 87 | 1012.4 |
| 20260508134311 | 4 | 236 | 3.2 | 4.8 | 0.00 | 0.00 | 0.00 | 85 | 1012.1 |
| 20260508133808 | 5 | 87 | 0.0 | 3.2 | 0.00 | 0.00 | 0.00 | 86 | 1012.1 |
| 20260508133306 | 5 | 249 | 0.0 | 3.2 | 0.00 | 0.00 | 0.00 | 86 | 1012.1 |
| 20260508132803 | 5 | 214 | 3.2 | 3.2 | 0.00 | 0.00 | 0.00 | 85 | 1012.1 |
| 20260508132300 | 5 | 62 | 1.6 | 3.2 | 0.00 | 0.00 | 0.00 | 85 | 1011.8 |
| 20260508131756 | 5 | 103 | 0.0 | 1.6 | 0.00 | 0.00 | 0.00 | 86 | 1011.8 |
| 20260508131252 | 5 | 89 | 0.0 | 3.2 | 0.00 | 0.00 | 0.00 | 85 | 1012.0 |
| 20260508130749 | 5 | 166 | 0.0 | 4.8 | 0.00 | 0.00 | 0.00 | 84 | 1012.0 |
| 20260508130246 | 5 | 174 | 0.0 | 9.7 | 0.00 | 0.00 | 0.00 | 84 | 1011.6 |
| 20260508125742 | 5 | 189 | 3.2 | 9.7 | 0.00 | 0.00 | 0.00 | 84 | 1011.7 |
| 20260508125238 | 5 | 162 | 0.0 | 6.4 | 0.00 | 0.00 | 0.00 | 84 | 1011.5 |
| 20260508124737 | 5 | 131 | 3.2 | 4.8 | 0.00 | 0.00 | 0.00 | 84 | 1011.5 |
| 20260508124233 | 5 | 132 | 1.6 | 8.0 | 0.00 | 0.00 | 0.00 | 85 | 1011.5 |
| 20260508123732 | 5 | 144 | 0.0 | 9.7 | 0.00 | 0.00 | 0.00 | 85 | 1011.3 |
| 20260508123229 | 5 | 164 | 3.2 | 9.7 | 0.00 | 0.00 | 0.00 | 84 | 1011.3 |
| 20260508122725 | 5 | 128 | 6.4 | 6.4 | 0.00 | 0.00 | 0.00 | 84 | 1011.4 |
| 20260508122222 | 4 | 176 | 3.2 | 6.4 | 0.00 | 0.00 | 0.00 | 85 | 1011.6 |
| 20260508121720 | 4 | 225 | 3.2 | 4.8 | 0.00 | 0.00 | 0.00 | 85 | 1011.7 |
| 20260508121218 | 4 | 138 | 0.0 | 4.8 | 0.00 | 0.00 | 0.00 | 84 | 1011.5 |
| 20260508120715 | 4 | 117 | 4.8 | 4.8 | 0.00 | 0.00 | 0.00 | 84 | 1011.7 |
| 20260508120213 | 5 | 198 | 1.6 | 3.2 | 0.00 | 0.00 | 0.00 | 85 | 1011.5 |
| 20260508115710 | 5 | 112 | 4.8 | 4.8 | 0.00 | 0.00 | 0.00 | 86 | 1011.3 |
| 20260508115207 | 5 | 110 | 1.6 | 3.2 | 0.00 | 0.00 | 0.00 | 92 | 1011.2 |
| 20260508114704 | 3 | 107 | 3.2 | 4.8 | 0.00 | 0.00 | 0.00 | 95 | 1011.5 |
| 20260508114201 | 3 | 119 | 4.8 | 4.8 | 0.00 | 0.00 | 0.00 | 96 | 1011.6 |
| 20260508113657 | 3 | 128 | 4.8 | 4.8 | 0.00 | 0.00 | 0.00 | 96 | 1011.8 |
| 20260508113156 | 3 | 120 | 3.2 | 4.8 | 0.00 | 0.00 | 0.00 | 96 | 1012.0 |
| 20260508112652 | 3 | 126 | 3.2 | 3.2 | 0.00 | 0.00 | 0.00 | 96 | 1011.6 |
| 20260508112149 | 2 | 110 | 1.6 | 3.2 | 0.00 | 0.00 | 0.00 | 96 | 1012.0 |
| 20260508111645 | 2 | 122 | 1.6 | 3.2 | 0.00 | 0.00 | 0.00 | 96 | 1012.0 |
| 20260508111143 | 2 | 142 | 0.0 | 3.2 | 0.00 | 0.00 | 0.00 | 96 | 1012.0 |
| 20260508110640 | 2 | 95 | 1.6 | 4.8 | 0.00 | 0.00 | 0.00 | 96 | 1011.7 |
| 20260508110137 | 2 | 76 | 1.6 | 8.0 | 0.00 | 0.00 | 0.00 | 96 | 1011.7 |
| 20260508105631 | 1 | 92 | 3.2 | 3.2 | 0.00 | 0.00 | 0.00 | 96 | 1011.8 |
| 20260508105129 | 1 | 104 | 1.6 | 3.2 | 0.00 | 0.00 | 0.00 | 96 | 1011.7 |
| 20260508104627 | 1 | 114 | 0.0 | 3.2 | 0.00 | 0.00 | 0.00 | 96 | 1011.6 |
| 20260508104123 | 1 | 108 | 3.2 | 4.8 | 0.00 | 0.00 | 0.00 | 96 | 1011.6 |
| 20260508103620 | 1 | 89 | 3.2 | 3.2 | 0.00 | 0.00 | 0.00 | 96 | 1012.0 |
| 20260508103117 | 1 | 89 | 3.2 | 4.8 | 0.00 | 0.00 | 0.00 | 96 | 1011.8 |
| 20260508102615 | 0 | 121 | 0.0 | 3.2 | 0.00 | 0.00 | 0.00 | 96 | 1011.6 |
| 20260508102113 | 0 | 157 | 1.6 | 3.2 | 0.00 | 0.00 | 0.00 | 95 | 1011.7 |
| 20260508101609 | 0 | 92 | 3.2 | 4.8 | 0.00 | 0.00 | 0.00 | 95 | 1011.4 |
| 20260508101107 | 0 | 95 | 1.6 | 4.8 | 0.00 | 0.00 | 0.00 | 95 | 1011.8 |
| 20260508100604 | 0 | 89 | 1.6 | 3.2 | 0.00 | 0.00 | 0.00 | 95 | 1012.0 |
| 20260508095558 | 0 | 105 | 1.6 | 4.8 | 0.00 | 0.00 | 0.00 | 95 | 1011.7 |
| 20260508095055 | 0 | 102 | 1.6 | 4.8 | 0.00 | 0.00 | 0.00 | 95 | 1011.6 |
| 20260508094552 | 0 | 79 | 3.2 | 4.8 | 0.00 | 0.00 | 0.00 | 95 | 1011.8 |
| 20260508094049 | 0 | 114 | 0.0 | 3.2 | 0.00 | 0.00 | 0.00 | 94 | 1011.8 |
| 20260508093546 | 0 | 127 | 3.2 | 4.8 | 0.00 | 0.00 | 0.00 | 94 | 1011.8 |
| 20260508093044 | 0 | 124 | 0.0 | 3.2 | 0.00 | 0.00 | 0.00 | 94 | 1011.7 |
| 20260508092541 | 0 | 111 | 1.6 | 4.8 | 0.00 | 0.00 | 0.00 | 94 | 1011.2 |
| 20260508092040 | 0 | 43 | 3.2 | 4.8 | 0.00 | 0.00 | 0.00 | 94 | 1011.2 |
| 20260508091536 | 0 | 59 | 3.2 | 4.8 | 0.00 | 0.00 | 0.00 | 93 | 1011.4 |
| 20260508091033 | 1 | 110 | 3.2 | 4.8 | 0.00 | 0.00 | 0.00 | 93 | 1011.6 |
| 20260508090532 | 1 | 83 | 3.2 | 4.8 | 0.00 | 0.00 | 0.00 | 93 | 1011.5 |
| 20260508090028 | 1 | 53 | 0.0 | 4.8 | 0.00 | 0.00 | 0.00 | 93 | 1011.4 |
| 20260508085524 | 1 | 57 | 1.6 | 3.2 | 0.00 | 0.00 | 0.00 | 92 | 1011.3 |
| 20260508085021 | 1 | 29 | 3.2 | 4.8 | 0.00 | 0.00 | 0.00 | 91 | 1011.2 |
| 20260508084518 | 2 | 76 | 0.0 | 1.6 | 0.00 | 0.00 | 0.00 | 91 | 1011.1 |
| 20260508084016 | 2 | 119 | 3.2 | 4.8 | 0.00 | 0.00 | 0.00 | 91 | 1011.0 |
| 20260508083513 | 2 | 105 | 1.6 | 3.2 | 0.00 | 0.00 | 0.00 | 91 | 1011.2 |
| 20260508083009 | 2 | 108 | 1.6 | 1.6 | 0.00 | 0.00 | 0.00 | 90 | 1011.4 |
| 20260508082505 | 2 | 97 | 0.0 | 3.2 | 0.00 | 0.00 | 0.00 | 90 | 1011.6 |
| 20260508082003 | 2 | 212 | 0.0 | 1.6 | 0.00 | 0.00 | 0.00 | 89 | 1011.3 |
| 20260508081500 | 3 | 166 | 1.6 | 3.2 | 0.00 | 0.00 | 0.00 | 88 | 1011.1 |
| 20260508080955 | 3 | 166 | 1.6 | 4.8 | 0.00 | 0.00 | 0.00 | 89 | 1011.0 |
| 20260508080454 | 2 | 136 | 3.2 | 3.2 | 0.00 | 0.00 | 0.00 | 90 | 1011.0 |
| 20260508075951 | 3 | 128 | 3.2 | 3.2 | 0.00 | 0.00 | 0.00 | 88 | 1011.3 |
| 20260508075448 | 3 | 55 | 0.0 | 1.6 | 0.00 | 0.00 | 0.00 | 87 | 1010.9 |
| 20260508074945 | 3 | 77 | 1.6 | 4.8 | 0.00 | 0.00 | 0.00 | 86 | 1010.7 |
| 20260508074443 | 3 | 72 | 1.6 | 6.4 | 0.00 | 0.00 | 0.00 | 86 | 1011.0 |
| 20260508073939 | 3 | 243 | 3.2 | 3.2 | 0.00 | 0.00 | 0.00 | 88 | 1010.9 |
| 20260508073437 | 4 | 288 | 0.0 | 4.8 | 0.00 | 0.00 | 0.00 | 87 | 1010.9 |
| 20260508072934 | 4 | 141 | 0.0 | 4.8 | 0.00 | 0.00 | 0.00 | 87 | 1011.1 |
| 20260508072430 | 4 | 174 | 0.0 | 4.8 | 0.00 | 0.00 | 0.00 | 87 | 1011.1 |
| 20260508071927 | 4 | 196 | 4.8 | 6.4 | 0.00 | 0.00 | 0.00 | 87 | 1010.8 |
| 20260508071425 | 4 | 223 | 3.2 | 8.0 | 0.00 | 0.00 | 0.00 | 87 | 1011.2 |
| 20260508070923 | 4 | 101 | 4.8 | 6.4 | 0.00 | 0.00 | 0.00 | 87 | 1011.0 |
| 20260508070420 | 4 | 306 | 0.0 | 6.4 | 0.00 | 0.00 | 0.00 | 88 | 1011.1 |
| 20260508065918 | 3 | 205 | 0.0 | 3.2 | 0.00 | 0.00 | 0.00 | 88 | 1011.0 |
| 20260508065416 | 3 | 99 | 0.0 | 3.2 | 0.00 | 0.00 | 0.00 | 87 | 1011.1 |
| 20260508064914 | 3 | 198 | 0.0 | 4.8 | 0.00 | 0.00 | 0.00 | 87 | 1011.0 |
| 20260508064411 | 3 | 166 | 0.0 | 4.8 | 0.00 | 0.00 | 0.00 | 87 | 1010.9 |
| 20260508063909 | 3 | 174 | 0.0 | 3.2 | 0.00 | 0.00 | 0.00 | 86 | 1011.0 |
| 20260508063406 | 3 | 122 | 3.2 | 3.2 | 0.00 | 0.00 | 0.00 | 85 | 1010.8 |
| 20260508062903 | 3 | 123 | 3.2 | 4.8 | 0.00 | 0.00 | 0.00 | 85 | 1010.7 |
| 20260508062401 | 3 | 125 | 3.2 | 4.8 | 0.00 | 0.00 | 0.00 | 85 | 1010.8 |
| 20260508061858 | 3 | 120 | 3.2 | 4.8 | 0.00 | 0.00 | 0.00 | 86 | 1010.7 |
| 20260508061355 | 3 | 123 | 3.2 | 4.8 | 0.00 | 0.00 | 0.00 | 86 | 1010.7 |
| 20260508060851 | 3 | 113 | 3.2 | 4.8 | 0.00 | 0.00 | 0.00 | 87 | 1010.7 |
| 20260508060349 | 3 | 88 | 3.2 | 4.8 | 0.00 | 0.00 | 0.00 | 88 | 1010.8 |
| 20260508055844 | 3 | 234 | 3.2 | 3.2 | 0.00 | 0.00 | 0.00 | 88 | 1010.9 |
| 20260508055342 | 3 | 41 | 1.6 | 3.2 | 0.00 | 0.00 | 0.00 | 87 | 1010.8 |
| 20260508054838 | 3 | 100 | 3.2 | 3.2 | 0.00 | 0.00 | 0.00 | 88 | 1010.7 |
| 20260508054336 | 3 | 104 | 3.2 | 4.8 | 0.00 | 0.00 | 0.00 | 88 | 1010.7 |
| 20260508053832 | 3 | 95 | 3.2 | 4.8 | 0.00 | 0.00 | 0.00 | 88 | 1010.8 |
| 20260508053330 | 3 | 97 | 3.2 | 3.2 | 0.00 | 0.00 | 0.00 | 88 | 1010.9 |
| 20260508052827 | 3 | 55 | 0.0 | 3.2 | 0.00 | 0.00 | 0.00 | 87 | 1011.0 |
| 20260508052324 | 3 | 93 | 3.2 | 3.2 | 0.00 | 0.00 | 0.00 | 85 | 1011.0 |
| 20260508051820 | 3 | 63 | 0.0 | 3.2 | 0.00 | 0.00 | 0.00 | 82 | 1010.9 |
| 20260508051316 | 3 | 122 | 3.2 | 3.2 | 0.00 | 0.00 | 0.00 | 82 | 1011.1 |
| 20260508050812 | 3 | 118 | 0.0 | 1.6 | 0.00 | 0.00 | 0.00 | 81 | 1011.1 |
| 20260508050310 | 3 | 112 | 1.6 | 3.2 | 0.00 | 0.00 | 0.00 | 80 | 1011.0 |
| 20260508045805 | 4 | 113 | 3.2 | 3.2 | 0.00 | 0.00 | 0.00 | 80 | 1011.1 |
| 20260508045306 | 4 | 110 | 3.2 | 4.8 | 0.00 | 0.00 | 0.00 | 80 | 1011.0 |
| 20260508044801 | 5 | 110 | 3.2 | 4.8 | 0.00 | 0.00 | 0.00 | 79 | 1010.9 |
| 20260508044257 | 5 | 104 | 4.8 | 4.8 | 0.00 | 0.00 | 0.00 | 81 | 1011.2 |
| 20260508043753 | 5 | 76 | 0.0 | 3.2 | 0.00 | 0.00 | 0.00 | 81 | 1011.2 |
| 20260508043251 | 5 | 96 | 3.2 | 3.2 | 0.00 | 0.00 | 0.00 | 80 | 1011.5 |
| 20260508042747 | 5 | 105 | 1.6 | 3.2 | 0.00 | 0.00 | 0.00 | 79 | 1011.2 |
| 20260508042245 | 5 | 135 | 0.0 | 4.8 | 0.00 | 0.00 | 0.00 | 77 | 1010.9 |
| 20260508041741 | 5 | 142 | 6.4 | 8.0 | 0.00 | 0.00 | 0.00 | 75 | 1011.2 |
| 20260508041238 | 5 | 275 | 4.8 | 8.0 | 0.00 | 0.00 | 0.00 | 76 | 1011.2 |
| 20260508040734 | 5 | 143 | 6.4 | 8.0 | 0.00 | 0.00 | 0.00 | 76 | 1011.2 |
| 20260508040232 | 5 | 228 | 0.0 | 4.8 | 0.00 | 0.00 | 0.00 | 77 | 1011.2 |
| 20260508035729 | 5 | 137 | 3.2 | 6.4 | 0.00 | 0.00 | 0.00 | 77 | 1011.0 |
| 20260508035226 | 5 | 122 | 4.8 | 6.4 | 0.00 | 0.00 | 0.00 | 78 | 1011.1 |
| 20260508034723 | 5 | 194 | 0.0 | 6.4 | 0.00 | 0.00 | 0.00 | 80 | 1011.0 |
| 20260508034220 | 4 | 126 | 6.4 | 6.4 | 0.00 | 0.00 | 0.00 | 77 | 1010.8 |
| 20260508033717 | 4 | 109 | 3.2 | 3.2 | 0.00 | 0.00 | 0.00 | 79 | 1010.9 |
| 20260508033216 | 4 | 120 | 3.2 | 3.2 | 0.00 | 0.00 | 0.00 | 79 | 1010.8 |
| 20260508032713 | 4 | 69 | 1.6 | 3.2 | 0.00 | 0.00 | 0.00 | 78 | 1010.7 |
| 20260508032209 | 5 | 66 | 0.0 | 1.6 | 0.00 | 0.00 | 0.00 | 76 | 1010.8 |
| 20260508031706 | 5 | 103 | 0.0 | 3.2 | 0.00 | 0.00 | 0.00 | 72 | 1010.6 |
| 20260508031203 | 5 | 117 | 4.8 | 4.8 | 0.00 | 0.00 | 0.00 | 72 | 1010.6 |
| 20260508030659 | 4 | 121 | 3.2 | 4.8 | 0.00 | 0.00 | 0.00 | 74 | 1010.8 |
| 20260508030157 | 3 | 118 | 3.2 | 3.2 | 0.00 | 0.00 | 0.00 | 75 | 1010.6 |
| 20260508025653 | 3 | 116 | 3.2 | 3.2 | 0.00 | 0.00 | 0.00 | 75 | 1010.6 |
| 20260508025150 | 3 | 103 | 0.0 | 1.6 | 0.00 | 0.00 | 0.00 | 74 | 1010.5 |
| 20260508024646 | 3 | 120 | 3.2 | 3.2 | 0.00 | 0.00 | 0.00 | 74 | 1010.3 |
| 20260508024143 | 3 | 100 | 3.2 | 3.2 | 0.00 | 0.00 | 0.00 | 79 | 1010.4 |
| 20260508023639 | 2 | 106 | 1.6 | 3.2 | 0.00 | 0.00 | 0.00 | 83 | 1010.2 |
| 20260508023137 | 3 | 92 | 1.6 | 3.2 | 0.00 | 0.00 | 0.00 | 83 | 1010.3 |
| 20260508022632 | 3 | 108 | 1.6 | 3.2 | 0.00 | 0.00 | 0.00 | 82 | 1010.2 |
| 20260508022130 | 3 | 29 | 3.2 | 4.8 | 0.00 | 0.00 | 0.00 | 82 | 1010.1 |
| 20260508021626 | 3 | 73 | 1.6 | 3.2 | 0.00 | 0.00 | 0.00 | 81 | 1010.2 |
| 20260508021121 | 4 | 34 | 0.0 | 3.2 | 0.00 | 0.00 | 0.00 | 80 | 1010.2 |
| 20260508020620 | 4 | 59 | 1.6 | 3.2 | 0.00 | 0.00 | 0.00 | 77 | 1010.2 |
| 20260508020117 | 3 | 105 | 1.6 | 3.2 | 0.00 | 0.00 | 0.00 | 76 | 1010.3 |
| 20260508015614 | 3 | 88 | 1.6 | 3.2 | 0.00 | 0.00 | 0.00 | 77 | 1010.5 |
| 20260508015111 | 4 | 102 | 0.0 | 1.6 | 0.00 | 0.00 | 0.00 | 77 | 1010.3 |
| 20260508014607 | 4 | 61 | 1.6 | 3.2 | 0.00 | 0.00 | 0.00 | 74 | 1010.1 |
| 20260508014104 | 4 | 92 | 1.6 | 3.2 | 0.00 | 0.00 | 0.00 | 73 | 1010.0 |
| 20260508013600 | 5 | 103 | 0.0 | 3.2 | 0.00 | 0.00 | 0.00 | 72 | 1010.0 |
| 20260508013057 | 5 | 80 | 1.6 | 3.2 | 0.00 | 0.00 | 0.00 | 70 | 1010.0 |
| 20260508012554 | 6 | 57 | 1.6 | 4.8 | 0.00 | 0.00 | 0.00 | 68 | 1009.8 |
| 20260508012052 | 6 | 27 | 1.6 | 8.0 | 0.00 | 0.00 | 0.00 | 65 | 1010.0 |
| 20260508011550 | 6 | 4 | 4.8 | 8.0 | 0.00 | 0.00 | 0.00 | 67 | 1009.9 |
| 20260508011047 | 6 | 8 | 3.2 | 6.4 | 0.00 | 0.00 | 0.00 | 69 | 1009.9 |
| 20260508010543 | 5 | 352 | 3.2 | 6.4 | 0.00 | 0.00 | 0.00 | 73 | 1009.9 |
| 20260508010041 | 5 | 32 | 1.6 | 3.2 | 0.00 | 0.00 | 0.00 | 75 | 1009.9 |
| 20260508005537 | 6 | 42 | 1.6 | 3.2 | 0.00 | 0.00 | 0.00 | 71 | 1009.7 |
| 20260508005034 | 6 | 42 | 3.2 | 4.8 | 0.00 | 0.00 | 0.00 | 68 | 1009.6 |
| 20260508004530 | 6 | 68 | 1.6 | 3.2 | 0.00 | 0.00 | 0.00 | 68 | 1009.7 |
| 20260508004027 | 6 | 67 | 1.6 | 3.2 | 0.00 | 0.00 | 0.00 | 66 | 1009.7 |
| 20260508003524 | 6 | 83 | 1.6 | 3.2 | 0.00 | 0.00 | 0.00 | 65 | 1009.5 |
| 20260508003021 | 7 | 82 | 0.0 | 3.2 | 0.00 | 0.00 | 0.00 | 63 | 1009.5 |
| 20260508002517 | 7 | 56 | 1.6 | 3.2 | 0.00 | 0.00 | 0.00 | 61 | 1009.7 |
| 20260508002015 | 7 | 70 | 1.6 | 3.2 | 0.00 | 0.00 | 0.00 | 61 | 1009.6 |
| 20260508001510 | 8 | 33 | 0.0 | 3.2 | 0.00 | 0.00 | 0.00 | 58 | 1009.3 |
| 20260508001007 | 8 | 22 | 0.0 | 3.2 | 0.00 | 0.00 | 0.00 | 58 | 1009.2 |
| 20260508000503 | 8 | 17 | 0.0 | 4.8 | 0.00 | 0.00 | 0.00 | 58 | 1009.6 |
| 20260508000000 | 8 | 15 | 3.2 | 3.2 | 0.00 | 0.00 | 0.00 | 56 | 1009.3 |
| 20260507235456 | 8 | 347 | 0.0 | 1.6 | 0.00 | 0.00 | 0.00 | 58 | 1009.3 |
| 20260507234954 | 8 | 326 | 0.0 | 4.8 | 0.00 | 0.00 | 0.00 | 57 | 1009.2 |
| 20260507234450 | 8 | 31 | 1.6 | 4.8 | 0.00 | 0.00 | 0.00 | 56 | 1009.5 |
| 20260507233949 | 8 | 14 | 0.0 | 3.2 | 0.00 | 0.00 | 0.00 | 55 | 1009.1 |
| 20260507233444 | 8 | 35 | 0.0 | 9.7 | 0.00 | 0.00 | 0.00 | 55 | 1009.1 |
| 20260507232942 | 8 | 9 | 0.0 | 9.7 | 0.00 | 0.00 | 0.00 | 55 | 1009.2 |
| 20260507232438 | 8 | 356 | 0.0 | 3.2 | 0.00 | 0.00 | 0.00 | 54 | 1009.1 |
| 20260507231936 | 9 | 17 | 0.0 | 3.2 | 0.00 | 0.00 | 0.00 | 53 | 1009.3 |
| 20260507231432 | 9 | 333 | 4.8 | 6.4 | 0.00 | 0.00 | 0.00 | 51 | 1009.0 |
| 20260507230929 | 10 | 23 | 8.0 | 9.7 | 0.00 | 0.00 | 0.00 | 51 | 1009.0 |
| 20260507230426 | 9 | 333 | 6.4 | 9.7 | 0.00 | 0.00 | 0.00 | 52 | 1009.2 |
| 20260507225926 | 10 | 322 | 3.2 | 9.7 | 0.00 | 0.00 | 0.00 | 53 | 1009.1 |
| 20260507225423 | 10 | 357 | 3.2 | 9.7 | 0.00 | 0.00 | 0.00 | 51 | 1009.0 |
| 20260507224919 | 10 | 335 | 3.2 | 12.9 | 0.00 | 0.00 | 0.00 | 52 | 1009.1 |
| 20260507224415 | 10 | 319 | 1.6 | 8.0 | 0.00 | 0.00 | 0.00 | 51 | 1009.0 |
| 20260507223912 | 11 | 313 | 4.8 | 8.0 | 0.00 | 0.00 | 0.00 | 49 | 1009.1 |
| 20260507223408 | 10 | 340 | 4.8 | 8.0 | 0.00 | 0.00 | 0.00 | 50 | 1009.0 |
| 20260507222905 | 10 | 341 | 4.8 | 8.0 | 0.00 | 0.00 | 0.00 | 50 | 1008.9 |
| 20260507222402 | 10 | 13 | 8.0 | 11.3 | 0.00 | 0.00 | 0.00 | 52 | 1009.1 |
| 20260507221859 | 10 | 3 | 4.8 | 8.0 | 0.00 | 0.00 | 0.00 | 52 | 1009.1 |
| 20260507221355 | 10 | 1 | 3.2 | 9.7 | 0.00 | 0.00 | 0.00 | 53 | 1009.1 |
| 20260507220851 | 10 | 318 | 1.6 | 8.0 | 0.00 | 0.00 | 0.00 | 51 | 1009.1 |
| 20260507220349 | 11 | 353 | 4.8 | 8.0 | 0.00 | 0.00 | 0.00 | 50 | 1009.0 |
| 20260507215845 | 10 | 348 | 1.6 | 6.4 | 0.00 | 0.00 | 0.00 | 51 | 1009.2 |
| 20260507215342 | 10 | 0 | 0.0 | 4.8 | 0.00 | 0.00 | 0.00 | 51 | 1009.0 |
| 20260507214839 | 10 | 352 | 3.2 | 6.4 | 0.00 | 0.00 | 0.00 | 53 | 1009.1 |
| 20260507214337 | 10 | 342 | 1.6 | 6.4 | 0.00 | 0.00 | 0.00 | 53 | 1009.2 |
| 20260507213832 | 10 | 10 | 3.2 | 4.8 | 0.00 | 0.00 | 0.00 | 52 | 1009.3 |
| 20260507213329 | 11 | 324 | 1.6 | 9.7 | 0.00 | 0.00 | 0.00 | 52 | 1009.1 |
| 20260507212826 | 10 | 319 | 3.2 | 12.9 | 0.00 | 0.00 | 0.00 | 51 | 1009.2 |
| 20260507212322 | 10 | 1 | 6.4 | 11.3 | 0.00 | 0.00 | 0.00 | 51 | 1009.1 |
| 20260507211818 | 11 | 329 | 3.2 | 6.4 | 0.00 | 0.00 | 0.00 | 49 | 1009.3 |
| 20260507211315 | 11 | 329 | 1.6 | 4.8 | 0.00 | 0.00 | 0.00 | 49 | 1009.1 |
| 20260507210812 | 10 | 23 | 1.6 | 11.3 | 0.00 | 0.00 | 0.00 | 50 | 1009.3 |
| 20260507210309 | 10 | 324 | 6.4 | 9.7 | 0.00 | 0.00 | 0.00 | 49 | 1009.3 |
| 20260507205805 | 10 | 323 | 4.8 | 11.3 | 0.00 | 0.00 | 0.00 | 48 | 1009.1 |
| 20260507205306 | 12 | 322 | 1.6 | 16.1 | 0.00 | 0.00 | 0.00 | 48 | 1009.2 |
| 20260507204758 | 11 | 341 | 3.2 | 12.9 | 0.00 | 0.00 | 0.00 | 46 | 1009.0 |
| 20260507204256 | 11 | 347 | 9.7 | 22.5 | 0.00 | 0.00 | 0.00 | 47 | 1009.0 |
| 20260507203754 | 11 | 320 | 3.2 | 11.3 | 0.00 | 0.00 | 0.00 | 47 | 1009.3 |
| 20260507203251 | 10 | 332 | 3.2 | 14.5 | 0.00 | 0.00 | 0.00 | 47 | 1009.1 |
| 20260507202748 | 11 | 8 | 4.8 | 12.9 | 0.00 | 0.00 | 0.00 | 48 | 1009.3 |
| 20260507202243 | 11 | 284 | 1.6 | 6.4 | 0.00 | 0.00 | 0.00 | 47 | 1009.2 |
| 20260507201738 | 11 | 280 | 8.0 | 12.9 | 0.00 | 0.00 | 0.00 | 46 | 1009.3 |
| 20260507201235 | 11 | 284 | 4.8 | 12.9 | 0.00 | 0.00 | 0.00 | 46 | 1009.1 |
| 20260507200732 | 12 | 295 | 3.2 | 8.0 | 0.00 | 0.00 | 0.00 | 46 | 1009.2 |
| 20260507200228 | 11 | 275 | 3.2 | 9.7 | 0.00 | 0.00 | 0.00 | 50 | 1009.5 |
| 20260507195724 | 11 | 254 | 6.4 | 9.7 | 0.00 | 0.00 | 0.00 | 46 | 1009.6 |
| 20260507195222 | 12 | 320 | 4.8 | 16.1 | 0.00 | 0.00 | 0.00 | 45 | 1009.5 |
| 20260507194719 | 11 | 328 | 4.8 | 11.3 | 0.00 | 0.00 | 0.00 | 48 | 1009.5 |
| 20260507194215 | 11 | 351 | 4.8 | 8.0 | 0.00 | 0.00 | 0.00 | 46 | 1009.5 |
| 20260507193711 | 11 | 238 | 8.0 | 14.5 | 0.00 | 0.00 | 0.00 | 47 | 1009.5 |
| 20260507193208 | 11 | 261 | 4.8 | 8.0 | 0.00 | 0.00 | 0.00 | 47 | 1009.8 |
| 20260507192704 | 11 | 264 | 12.9 | 19.3 | 0.00 | 0.00 | 0.00 | 46 | 1009.7 |
| 20260507192201 | 11 | 313 | 4.8 | 11.3 | 0.00 | 0.00 | 0.00 | 45 | 1009.7 |
| 20260507191657 | 11 | 313 | 3.2 | 9.7 | 0.00 | 0.00 | 0.00 | 47 | 1009.9 |
| 20260507191154 | 11 | 315 | 9.7 | 11.3 | 0.00 | 0.00 | 0.00 | 47 | 1009.6 |
| 20260507190651 | 11 | 311 | 9.7 | 11.3 | 0.00 | 0.00 | 0.00 | 47 | 1009.8 |
| 20260507190150 | 11 | 348 | 3.2 | 11.3 | 0.00 | 0.00 | 0.00 | 48 | 1009.8 |
| 20260507185648 | 11 | 277 | 4.8 | 11.3 | 0.00 | 0.00 | 0.00 | 46 | 1010.0 |
| 20260507185144 | 11 | 356 | 4.8 | 8.0 | 0.00 | 0.00 | 0.00 | 50 | 1009.9 |
| 20260507184642 | 11 | 280 | 6.4 | 14.5 | 0.00 | 0.00 | 0.00 | 45 | 1010.1 |
| 20260507184140 | 11 | 256 | 19.3 | 19.3 | 0.00 | 0.00 | 0.00 | 45 | 1010.0 |
| 20260507183636 | 11 | 290 | 4.8 | 11.3 | 0.00 | 0.00 | 0.00 | 46 | 1010.1 |
| 20260507183133 | 11 | 305 | 4.8 | 6.4 | 0.00 | 0.00 | 0.00 | 49 | 1009.9 |
| 20260507182629 | 10 | 332 | 4.8 | 9.7 | 0.00 | 0.00 | 0.00 | 47 | 1010.2 |
| 20260507182126 | 10 | 332 | 3.2 | 12.9 | 0.00 | 0.00 | 0.00 | 48 | 1010.2 |
| 20260507181622 | 11 | 321 | 3.2 | 11.3 | 0.00 | 0.00 | 0.00 | 46 | 1010.3 |
| 20260507181118 | 11 | 198 | 6.4 | 11.3 | 0.00 | 0.00 | 0.00 | 45 | 1010.2 |
| 20260507180615 | 11 | 241 | 9.7 | 14.5 | 0.00 | 0.00 | 0.00 | 47 | 1010.1 |
| 20260507180112 | 11 | 291 | 6.4 | 17.7 | 0.00 | 0.00 | 0.00 | 44 | 1010.3 |
| 20260507175608 | 11 | 273 | 3.2 | 14.5 | 0.00 | 0.00 | 0.00 | 43 | 1010.3 |
| 20260507175106 | 11 | 277 | 8.0 | 16.1 | 0.00 | 0.00 | 0.00 | 47 | 1010.2 |
| 20260507174603 | 11 | 328 | 3.2 | 17.7 | 0.00 | 0.00 | 0.00 | 47 | 1010.4 |
| 20260507174100 | 11 | 246 | 8.0 | 8.0 | 0.00 | 0.00 | 0.00 | 45 | 1010.5 |
| 20260507173557 | 11 | 228 | 3.2 | 8.0 | 0.00 | 0.00 | 0.00 | 49 | 1010.6 |
| 20260507173054 | 12 | 312 | 6.4 | 17.7 | 0.00 | 0.00 | 0.00 | 52 | 1010.4 |
| 20260507172550 | 11 | 244 | 9.7 | 16.1 | 0.00 | 0.00 | 0.00 | 51 | 1010.4 |
| 20260507172048 | 11 | 329 | 3.2 | 12.9 | 0.00 | 0.00 | 0.00 | 50 | 1010.4 |
| 20260507171543 | 11 | 2 | 4.8 | 8.0 | 0.00 | 0.00 | 0.00 | 50 | 1010.7 |
| 20260507171040 | 11 | 314 | 3.2 | 8.0 | 0.00 | 0.00 | 0.00 | 48 | 1010.6 |
| 20260507170537 | 10 | 242 | 8.0 | 12.9 | 0.00 | 0.00 | 0.00 | 50 | 1010.8 |
| 20260507170034 | 11 | 340 | 3.2 | 11.3 | 0.00 | 0.00 | 0.00 | 50 | 1010.7 |
| 20260507165529 | 10 | 243 | 8.0 | 16.1 | 0.00 | 0.00 | 0.00 | 51 | 1010.8 |
| 20260507165026 | 10 | 301 | 4.8 | 9.7 | 0.00 | 0.00 | 0.00 | 50 | 1011.0 |
| 20260507164522 | 11 | 9 | 11.3 | 12.9 | 0.00 | 0.00 | 0.00 | 48 | 1011.0 |